GFSNW_700_spd_009.txt.gz
Wind_Speed
44 43 42 40 40 39 34 33 31 6 19 22 30 37 36 29 31 32 39 34 36 40 40 43 43 42 28 33 43 43 44 41 40 49 37 37 38 40 43 34 26 31 31 36
40 39 36 33 33 32 30 29 30 10 24 26 27 27 34 33 33 33 32 38 36 38 44 47 45 44 42 32 23 46 43 48 32 36 42 43 44 45 43 47 33 37 15 37
36 32 29 26 26 23 24 20 18 11 12 10 22 28 34 31 30 28 26 27 30 32 35 37 49 46 41 39 31 27 23 42 55 33 37 38 35 47 44 43 44 42 52 40
33 30 26 23 25 21 21 18 18 12 19 18 16 16 22 22 27 29 23 30 26 25 29 30 29 28 36 41 37 31 25 37 52 43 46 31 47 30 48 50 48 41 40 45
29 26 24 20 23 21 21 19 18 20 25 23 23 15 18 18 23 23 26 21 22 18 28 21 30 25 18 26 35 23 26 27 41 37 37 43 44 37 37 49 49 49 47 47
27 24 22 20 21 20 20 18 17 20 23 23 20 13 22 15 23 24 14 15 22 22 20 27 35 26 31 33 29 23 25 16 22 31 32 27 31 55 42 31 47 48 47 46
26 22 20 19 18 18 19 18 19 21 27 23 21 23 21 20 23 22 23 16 14 22 27 31 38 41 35 35 33 19 28 23 25 25 23 9 32 32 36 36 24 37 44 42
24 20 18 17 18 17 18 17 17 20 27 26 20 18 20 23 23 20 27 19 12 19 20 19 21 38 37 39 35 30 21 22 18 21 26 18 29 23 24 26 33 25 25 17
22 18 16 15 14 15 17 14 17 19 27 27 22 24 18 20 27 26 15 19 17 20 11 16 4 7 14 18 20 26 28 20 24 22 14 15 33 24 23 20 18 20 21 22
19 16 15 13 13 14 16 11 15 20 25 21 20 17 18 18 22 24 24 20 17 13 16 12 9 11 15 14 13 11 9 15 14 16 21 18 6 33 28 15 10 12 21 23
19 16 14 13 13 15 16 13 16 19 23 21 21 18 19 22 23 21 22 20 13 14 11 14 9 7 12 14 30 16 10 9 17 10 8 6 13 17 23 17 11 17 20 19
19 17 15 14 14 14 16 15 16 18 21 23 18 19 21 19 19 18 23 20 22 11 8 11 11 10 8 19 13 22 11 20 24 10 5 12 3 12 19 28 23 13 12 14
20 20 16 14 14 14 14 13 13 17 22 22 11 13 9 12 12 10 16 15 12 18 9 7 15 8 11 11 19 18 22 15 28 19 10 4 10 24 16 18 31 21 22 21
19 17 16 16 14 12 11 11 12 15 17 27 6 19 14 16 11 8 7 5 11 19 15 12 8 5 6 16 13 7 14 15 14 22 14 13 18 22 16 11 11 14 28 25
19 18 17 15 14 14 12 13 12 12 14 25 21 6 5 6 3 3 11 9 10 17 10 9 15 13 10 9 17 16 14 15 16 19 14 12 13 16 21 22 22 20 20 17
19 19 18 16 15 15 15 9 10 13 14 21 19 10 4 10 8 4 9 13 12 12 10 13 14 11 11 5 14 17 18 18 21 19 16 20 19 21 16 22 22 24 23 21
19 17 16 14 13 14 12 10 15 15 16 18 18 9 10 4 6 5 13 12 9 6 14 17 15 16 5 10 13 9 16 13 24 25 19 25 26 25 21 22 21 20 20 21
20 18 16 14 15 15 15 16 16 15 14 13 8 10 13 4 9 9 6 7 10 20 18 19 19 5 7 8 11 12 16 15 21 23 23 27 20 28 21 12 7 7 6 9
21 18 17 15 18 20 18 21 19 12 8 7 7 12 10 5 15 14 14 16 17 15 14 12 7 8 2 5 10 2 15 20 18 13 11 9 11 10 14 14 11 10 10 10
23 23 25 21 22 18 16 14 15 10 7 9 10 12 17 12 19 12 8 10 7 5 3 5 4 4 4 5 13 13 11 16 20 14 14 21 21 21 15 9 7 11 6 4
23 18 19 20 18 15 12 8 6 6 5 8 10 12 11 7 12 12 6 4 4 2 4 4 5 8 11 6 16 20 17 15 15 15 17 18 15 12 10 9 10 10 10 10
23 24 18 14 14 10 12 12 8 7 7 9 13 15 19 1 4 5 2 3 1 6 6 4 5 14 13 15 16 18 13 10 19 22 21 17 15 13 8 6 10 7 12 15
12 28 22 14 15 17 16 13 21 21 12 10 12 19 10 3 3 5 2 3 8 8 7 6 20 29 26 29 29 28 27 25 21 20 25 24 18 12 12 12 11 11 8 12
24 15 21 19 17 26 39 38 40 26 23 20 26 16 16 16 8 10 7 10 9 7 7 19 19 27 22 16 23 29 24 24 21 23 18 26 21 15 9 8 11 6 5 5
18 12 14 27 25 30 32 37 37 35 23 16 14 22 23 14 10 9 7 7 9 10 12 14 19 16 16 25 23 22 22 21 18 21 18 20 19 12 14 12 13 11 11 10
22 18 23 21 24 27 33 37 36 37 17 16 18 13 13 21 12 13 13 7 11 15 14 13 15 22 17 18 18 17 16 16 18 18 20 19 14 15 15 14 14 9 8 6
18 19 18 22 24 24 29 29 25 25 28 36 26 21 17 10 18 17 21 15 21 15 15 16 16 14 22 21 18 22 17 13 12 18 21 13 16 14 11 8 9 7 12 8

GFSNW_700_spd_015.txt.gz
Wind_Speed
37 36 35 35 33 30 29 28 21 16 14 12 10 9 16 17 25 30 20 21 24 20 20 16 7 10 8 15 10 14 26 22 41 42 29 30 41 52 45 27 27 36 28 26
36 35 33 30 30 28 26 24 18 17 16 9 10 9 9 6 9 22 14 10 15 16 12 9 8 12 18 16 12 3 10 11 17 21 37 38 33 42 51 54 42 42 19 20
33 32 29 27 28 24 23 23 19 19 10 7 21 21 13 16 12 11 11 8 11 16 14 12 10 12 13 12 11 6 13 14 15 14 20 21 32 39 46 55 41 42 49 37
34 29 26 26 25 21 20 19 20 15 16 15 15 16 15 14 9 6 6 7 7 9 10 15 14 16 26 31 26 22 19 19 20 25 27 33 34 28 50 54 54 41 45 45
32 29 26 24 22 19 18 18 20 17 17 17 17 13 8 9 10 7 3 8 7 5 9 11 15 15 17 22 24 18 18 15 19 27 24 25 35 44 45 53 57 55 47 45
28 27 25 22 19 18 18 15 15 16 19 20 19 14 13 13 12 12 6 8 9 8 11 13 18 19 18 15 14 12 19 21 19 13 15 23 32 57 46 45 48 44 54 47
27 25 24 22 18 18 17 15 16 17 23 20 19 19 16 13 11 19 17 14 15 16 19 20 18 18 22 22 26 22 18 18 14 12 8 9 37 30 42 47 44 42 45 39
26 25 23 21 18 17 15 15 15 19 24 22 21 16 21 16 15 19 17 9 12 20 22 19 16 22 26 25 26 30 23 23 14 6 8 22 28 19 15 40 52 42 43 40
29 26 24 22 19 18 15 14 17 18 23 26 19 21 14 17 17 12 12 11 13 15 16 14 13 8 9 9 7 20 31 30 26 13 7 6 8 17 21 30 47 49 41 34
29 27 25 22 19 18 17 15 16 18 24 25 21 24 24 18 17 20 14 14 13 12 8 12 18 20 15 9 14 14 31 29 27 30 13 13 16 20 12 19 31 36 41 37
28 26 25 22 21 18 17 14 19 20 25 24 14 14 22 17 16 18 13 17 5 4 7 5 9 14 17 19 27 21 27 29 23 28 17 13 10 9 6 10 19 31 34 28
30 27 25 23 21 19 18 13 17 20 24 25 25 25 16 15 12 20 20 18 14 12 7 7 8 13 12 17 16 18 25 35 35 30 27 20 10 2 8 20 22 21 22 24
30 29 27 24 21 19 20 15 16 21 25 22 8 10 14 18 15 15 17 10 8 9 10 14 13 13 11 16 27 27 23 29 39 33 36 35 14 6 11 19 20 21 22 22
32 29 26 26 23 18 17 16 15 17 20 21 14 10 15 18 20 19 15 12 16 10 15 18 25 25 15 15 20 26 24 25 35 37 30 42 27 11 6 15 19 21 25 26
33 28 27 24 21 18 15 13 10 13 17 27 16 5 2 5 7 9 11 13 12 11 18 21 25 26 25 15 18 30 24 28 44 42 28 36 30 16 13 15 18 17 16 18
34 33 28 29 23 21 21 18 12 17 18 21 19 4 2 6 9 9 7 7 11 15 22 25 24 21 17 13 22 12 20 15 33 37 34 26 45 28 4 10 14 16 17 15
34 35 31 31 30 24 19 15 17 19 18 18 15 1 4 1 7 8 7 7 8 12 16 21 22 23 26 25 31 14 18 11 37 18 31 29 26 21 22 17 10 9 10 9
30 33 28 27 25 27 28 20 14 16 20 14 7 6 5 5 5 7 8 9 13 17 21 22 21 23 27 16 12 14 16 18 24 30 33 33 39 18 10 17 13 10 2 5
28 33 26 24 26 27 23 17 15 12 12 8 8 13 8 8 12 12 13 18 19 20 24 24 16 17 8 10 9 11 10 10 25 31 27 26 36 17 9 11 6 7 9 8
26 21 30 27 27 19 18 15 14 9 8 11 13 14 15 5 2 6 15 15 7 6 7 5 6 9 12 6 2 8 16 25 18 31 27 22 18 14 9 5 7 9 11 14
23 25 22 27 22 12 14 18 12 10 9 15 23 21 19 8 4 6 4 4 3 2 5 5 8 30 17 10 19 15 24 34 28 25 25 27 19 19 14 11 7 9 9 8
24 28 16 24 18 16 12 20 17 12 15 32 31 24 16 11 9 5 4 4 7 6 7 4 17 29 20 17 28 25 18 23 20 16 20 22 22 20 17 13 8 9 6 3
17 27 26 13 17 21 14 22 31 31 29 26 20 18 18 17 15 11 12 8 8 8 11 8 28 19 26 20 27 28 30 30 22 27 30 32 29 26 20 18 19 19 20 18
18 24 28 22 17 30 31 29 28 19 15 24 25 21 16 15 13 12 7 14 11 11 14 28 30 40 35 28 32 28 31 36 32 29 28 28 26 24 22 20 20 16 16 15
24 16 19 31 28 22 27 27 18 16 27 26 29 32 28 21 16 13 11 9 9 15 26 31 27 32 32 34 36 42 36 32 31 28 24 25 28 20 20 14 17 16 13 12
27 24 23 29 33 24 34 27 26 17 23 20 19 17 23 30 18 20 18 11 13 27 25 27 32 27 31 27 28 31 31 29 28 28 23 18 12 15 14 11 12 10 8 12
26 26 23 24 30 32 25 27 24 29 31 37 31 28 20 10 23 30 33 29 24 25 26 28 25 28 22 17 20 27 30 23 19 22 20 17 16 8 8 8 10 7 9 7

GFSNW_700_spd_021.txt.gz
Wind_Speed
41 40 40 39 38 36 33 29 22 18 18 12 11 9 11 14 18 18 15 11 10 9 9 2 3 8 9 16 19 26 31 23 23 24 23 35 37 33 36 23 14 27 15 14
40 40 39 38 36 34 32 28 19 21 14 13 14 10 8 8 10 11 7 11 8 5 6 3 6 5 7 6 7 14 23 21 20 18 18 28 35 38 34 33 22 25 18 7
39 38 36 36 33 31 28 26 21 21 14 17 13 14 11 10 11 7 9 8 9 11 9 9 4 3 3 6 6 8 15 13 26 23 25 23 24 25 36 38 37 34 39 28
36 36 35 34 32 29 27 24 20 20 20 17 14 14 12 11 13 7 7 3 6 10 7 13 16 18 10 6 4 5 4 3 11 15 19 19 20 27 25 29 39 38 38 41
36 35 34 33 32 28 24 22 21 20 20 20 15 16 12 10 14 15 12 7 7 5 4 3 8 11 13 13 11 8 9 4 8 10 15 13 17 28 32 29 32 28 36 38
35 35 36 33 31 27 25 23 20 20 20 19 14 19 17 13 13 7 12 14 17 2 5 7 8 11 11 11 12 10 10 5 4 8 9 14 22 37 26 29 27 30 39 33
37 34 33 30 31 28 24 22 20 21 23 20 20 18 16 12 14 17 13 12 14 12 9 10 9 12 12 13 15 16 15 11 7 9 5 10 16 20 24 23 24 32 43 40
37 37 37 32 26 27 23 21 20 21 26 26 20 16 17 17 16 16 18 12 12 12 12 9 7 4 9 12 12 14 15 16 9 11 18 23 23 12 16 18 24 22 20 20
37 38 39 36 26 24 24 21 21 21 24 25 23 23 19 18 17 13 5 7 7 10 10 7 3 4 4 4 5 17 23 23 15 9 12 12 13 26 25 26 26 25 31 18
40 41 41 37 32 23 22 22 21 21 26 23 25 19 16 19 17 19 16 3 4 8 10 6 6 7 5 6 7 7 14 20 28 26 16 15 22 15 11 16 11 13 13 24
40 41 42 39 34 27 22 21 19 21 27 22 12 18 29 24 23 22 17 14 5 5 6 5 5 6 7 9 13 13 13 10 16 25 19 24 21 28 20 12 13 17 18 20
40 42 42 41 35 32 20 26 21 22 26 26 15 11 10 11 9 12 13 13 9 6 5 6 5 6 7 10 12 10 20 25 12 18 22 11 21 29 28 23 25 23 26 23
39 41 42 42 36 29 20 23 22 22 25 22 12 15 16 17 13 14 11 4 3 9 14 14 14 13 12 12 13 16 15 18 23 25 31 24 28 24 28 36 33 24 20 25
37 40 42 41 36 26 20 14 17 18 20 19 14 12 8 9 9 12 11 12 10 9 11 13 16 18 16 20 20 23 22 22 25 27 31 36 30 25 31 28 28 38 34 26
37 38 39 37 33 28 26 11 11 10 15 21 19 7 7 4 4 2 5 7 11 13 15 19 20 21 22 26 25 28 19 19 23 28 26 31 38 33 23 29 26 20 21 20
35 34 34 32 28 29 31 18 14 14 13 18 22 10 4 3 5 5 6 7 10 15 19 22 26 22 21 18 28 33 21 24 28 30 30 31 36 35 34 24 17 21 17 19
32 30 30 27 25 30 29 26 22 19 14 18 16 7 6 10 10 8 9 12 14 16 23 31 30 29 30 38 44 31 33 30 28 29 27 33 28 30 27 22 18 17 22 24
27 29 27 20 22 24 26 23 19 16 15 11 8 11 11 7 11 10 10 11 15 20 24 30 31 27 29 38 31 26 22 25 14 16 26 23 21 24 28 23 24 23 28 27
28 22 21 11 22 25 24 21 21 18 12 9 10 21 13 17 9 9 10 12 11 13 20 23 18 24 20 28 30 26 13 11 14 11 14 20 20 32 24 20 27 32 30 29
22 16 19 18 15 23 20 21 21 18 16 26 37 27 22 19 14 8 7 6 6 7 10 16 12 22 38 31 17 12 7 16 14 21 16 19 27 27 17 27 24 22 24 26
14 15 21 17 16 13 15 19 13 17 13 34 40 34 31 27 21 13 10 9 8 8 14 16 15 34 46 24 24 26 17 15 13 15 17 21 17 22 26 23 19 20 20 19
21 15 15 19 18 11 12 15 15 14 19 31 30 26 25 26 24 15 17 12 13 11 20 21 34 49 40 34 25 30 27 27 19 14 11 19 25 23 23 24 21 21 23 22
36 38 22 12 15 16 17 22 29 23 25 29 27 21 23 18 16 16 17 15 13 17 24 16 47 56 46 39 30 33 22 24 27 28 29 30 24 24 27 31 31 27 29 30
26 28 26 19 13 19 19 24 24 18 18 21 26 27 26 19 16 14 9 23 14 15 18 35 47 49 49 48 49 51 50 44 46 40 38 38 35 33 32 35 33 28 31 32
28 17 17 31 26 24 20 17 16 14 14 13 21 31 27 17 20 13 11 11 11 18 29 33 39 41 43 44 45 44 43 43 39 37 36 34 30 30 27 31 30 27 27 25
37 26 24 27 28 22 23 14 11 6 8 10 20 15 17 26 15 18 15 9 14 19 26 27 32 38 38 40 39 38 37 37 35 32 32 30 27 26 30 27 24 22 20 19
25 27 25 24 26 28 22 18 20 16 10 13 18 13 11 5 16 17 21 20 18 17 17 28 30 32 31 30 28 28 28 27 25 24 23 22 21 17 14 15 18 13 12 12

GFSNW_700_spd_024.txt.gz
Wind_Speed
39 41 42 40 39 37 33 29 16 22 17 10 10 9 12 14 10 12 12 15 12 10 9 6 7 8 5 17 15 28 33 22 18 37 35 34 39 35 42 29 32 35 21 9
40 40 41 43 38 37 34 28 23 20 14 9 13 13 11 13 13 14 9 7 12 13 9 5 4 4 2 9 9 22 25 28 26 20 31 29 42 41 38 37 26 31 22 7
39 41 43 41 41 34 32 27 13 14 11 14 14 14 12 12 12 11 13 11 11 13 17 13 4 2 3 4 3 17 30 23 38 30 30 31 40 41 38 41 39 30 28 23
36 39 39 44 41 32 29 24 13 19 15 11 13 12 11 13 13 12 10 13 10 7 7 16 14 9 4 3 3 1 13 25 20 25 15 15 30 41 42 43 41 38 30 28
36 37 39 40 41 32 26 20 21 20 18 14 14 10 9 11 13 15 11 12 16 13 8 7 10 5 6 5 4 1 3 14 13 23 15 11 16 21 28 38 41 38 36 31
36 37 38 40 39 31 26 22 18 18 19 13 13 10 13 16 15 8 9 16 17 15 11 10 11 13 14 14 11 7 4 9 11 23 19 16 23 30 28 28 30 30 35 29
37 38 38 38 38 30 20 18 17 20 18 14 13 16 15 16 14 19 16 14 15 11 12 9 10 14 14 16 16 14 9 10 9 11 12 15 21 23 27 33 29 29 27 25
37 39 38 38 37 34 21 15 16 18 21 16 15 13 14 16 16 15 14 11 9 12 7 7 8 10 9 14 15 17 18 14 14 19 20 8 11 10 11 17 27 27 23 21
38 39 39 39 37 38 22 20 16 19 23 12 13 19 14 13 13 11 6 10 10 6 7 6 7 7 5 8 8 16 16 18 18 13 20 14 10 25 10 7 14 17 16 16
37 40 39 39 39 38 25 22 19 19 27 20 18 13 15 15 15 14 11 7 4 6 4 7 8 12 8 8 13 15 23 19 23 24 19 17 14 6 7 14 7 7 11 13
36 38 37 38 40 35 29 23 20 21 25 24 14 22 17 15 14 15 10 9 6 7 6 6 7 9 7 11 14 10 17 22 23 24 25 27 14 14 14 10 10 14 13 15
35 36 37 39 38 33 24 23 18 19 22 24 20 13 10 12 11 11 13 10 6 6 5 7 6 7 7 9 14 14 23 22 21 20 26 19 17 26 20 23 19 18 27 21
36 36 35 37 35 30 27 19 13 17 21 20 6 9 15 16 12 13 10 6 8 8 12 12 10 11 10 11 14 17 21 21 25 28 31 29 22 23 21 20 34 28 25 19
35 34 32 32 31 26 24 16 11 11 17 22 15 12 11 8 8 8 11 13 13 12 11 14 16 17 11 15 18 20 18 18 24 29 30 28 27 29 24 22 21 40 39 29
32 31 30 28 25 24 22 20 12 13 12 22 19 10 7 9 7 7 8 13 16 19 16 18 22 21 21 23 24 33 25 30 29 33 22 25 27 25 33 31 31 35 39 41
27 28 27 23 19 23 23 22 21 18 16 17 13 8 6 6 5 6 9 9 11 14 20 22 28 25 23 20 30 27 23 23 23 26 23 25 26 29 33 34 34 33 34 36
26 27 23 18 19 20 20 19 23 22 17 15 11 7 11 10 12 12 9 13 19 20 24 28 28 26 28 38 45 24 28 27 28 31 29 38 32 30 27 28 34 28 27 23
27 26 20 12 19 19 19 19 18 22 17 9 11 16 12 14 9 13 14 16 17 22 27 33 34 35 35 43 36 39 33 26 31 30 31 32 34 31 27 27 29 26 24 20
26 21 16 14 19 18 18 23 21 17 29 15 26 29 15 23 17 9 8 10 12 14 19 23 18 23 19 45 42 36 33 30 13 13 19 20 22 25 25 24 28 29 23 23
17 17 19 20 18 19 18 19 21 19 28 38 44 35 35 30 28 18 8 7 9 10 18 19 14 22 53 48 29 19 16 19 18 16 14 12 19 24 26 26 31 18 23 28
14 21 21 18 10 21 15 17 13 22 17 29 32 30 30 34 28 17 18 14 10 12 24 20 34 53 53 51 31 30 23 14 14 11 13 15 12 14 28 17 19 30 33 22
14 22 21 21 19 12 11 14 13 13 17 29 29 25 22 27 29 21 20 14 13 12 27 24 38 52 55 55 40 24 25 27 28 17 15 17 14 28 23 27 25 26 27 21
29 32 20 11 13 16 16 24 22 17 24 26 27 21 21 17 18 17 15 14 17 19 21 16 50 53 56 60 51 49 35 22 22 23 26 17 19 19 22 24 25 27 28 29
16 26 20 15 12 18 18 22 20 20 20 19 19 21 23 19 13 10 9 15 14 16 18 33 43 50 50 51 52 50 46 47 40 39 34 37 40 41 42 41 33 33 30 28
18 12 13 22 20 16 20 21 16 12 12 12 10 15 18 13 13 12 10 9 10 16 29 29 38 39 40 42 42 43 41 42 43 40 39 39 35 38 38 34 31 29 28 22
30 21 17 20 18 19 17 19 22 20 10 2 6 7 12 17 14 16 14 8 11 19 23 25 26 28 30 33 33 34 33 33 33 32 31 30 28 28 28 26 27 27 21 16
15 15 20 21 20 20 20 17 19 21 12 2 3 8 7 7 10 20 17 22 19 17 17 18 18 20 22 22 21 21 22 24 25 25 25 24 23 21 16 12 14 11 9 7

GFSNW_700_spd_030.txt.gz
Wind_Speed
35 34 34 36 39 41 37 34 13 17 19 14 14 16 19 19 22 16 19 17 16 19 21 25 25 18 11 11 13 21 51 45 42 38 41 42 42 46 40 30 32 32 26 5
36 36 36 36 37 39 40 33 11 8 20 14 18 18 21 17 21 13 15 18 18 20 20 18 15 24 13 19 13 10 18 42 39 38 37 45 49 42 41 37 32 32 20 11
35 38 37 36 36 36 36 28 13 14 6 11 16 18 17 17 15 17 11 17 18 18 16 15 15 27 18 19 19 16 18 26 40 27 35 38 44 43 42 39 38 29 32 10
34 38 38 37 36 35 36 29 11 15 16 16 16 14 17 21 19 16 17 17 16 17 21 18 19 26 29 12 14 5 9 17 27 45 34 30 39 42 43 48 38 38 29 27
33 35 36 37 38 36 36 34 21 19 18 13 13 14 17 17 19 18 20 18 17 19 18 15 18 19 20 20 14 16 3 11 18 25 34 26 24 42 42 42 41 34 32 25
32 33 35 35 37 39 37 35 19 17 19 13 15 14 18 19 18 16 15 23 22 21 20 18 19 20 23 24 22 17 9 8 9 24 23 26 26 25 40 41 40 35 35 26
32 32 33 33 34 36 37 35 24 21 24 15 16 18 18 15 16 20 17 16 18 19 20 19 19 19 20 21 16 9 10 10 9 18 17 19 23 24 18 35 36 36 29 29
31 31 32 32 33 34 34 34 25 22 28 21 19 17 16 18 16 16 17 20 9 16 19 19 19 20 14 23 19 13 8 9 10 8 13 15 17 20 25 14 28 34 32 25
28 29 31 31 33 32 33 33 26 22 26 17 15 15 19 18 13 14 12 21 15 13 14 15 16 8 9 16 26 14 12 11 8 8 7 12 13 15 14 24 17 4 10 15
28 29 29 30 30 30 34 34 25 23 27 15 15 20 16 18 20 18 15 14 13 15 9 10 14 13 10 7 22 22 17 14 16 12 8 3 10 8 17 21 6 10 11 14
28 27 27 28 30 31 32 31 24 22 26 23 7 14 17 12 11 12 14 13 14 11 6 5 9 8 6 6 6 3 20 18 19 19 14 3 1 5 10 10 10 17 18 14
25 26 27 29 30 27 26 26 21 17 21 22 18 13 11 5 7 10 16 11 10 7 12 11 8 15 12 14 7 3 10 8 20 25 25 5 5 8 2 1 4 9 13 13
25 27 28 26 23 20 21 20 14 15 20 21 17 8 12 11 7 6 9 9 6 6 10 10 8 9 10 12 13 16 12 4 10 14 26 18 12 14 5 5 7 6 6 7
28 27 26 19 18 16 18 19 18 15 18 18 19 9 14 7 5 6 8 6 10 9 8 9 12 12 7 16 22 17 14 17 13 16 19 20 16 16 16 14 12 8 15 12
27 25 22 14 17 14 17 17 22 20 13 17 11 8 13 5 8 6 8 9 9 11 12 12 14 11 16 16 20 25 18 20 21 23 20 20 21 19 21 25 22 20 19 22
22 20 16 16 16 14 16 23 20 22 26 16 10 21 21 17 10 7 11 18 16 15 15 15 18 18 18 16 21 24 20 24 28 30 32 32 29 26 16 18 20 28 27 28
17 15 16 14 18 17 26 25 23 28 29 33 15 26 34 31 26 21 13 8 10 13 19 21 25 29 31 37 40 34 30 30 42 42 40 42 39 35 26 26 22 37 37 46
20 13 14 13 15 15 16 22 32 20 33 30 20 23 29 29 27 26 31 29 29 29 18 12 14 12 12 19 47 41 23 24 37 48 51 47 40 39 29 25 34 34 53 58
20 10 10 14 14 12 14 16 28 33 32 24 31 27 20 25 22 15 11 22 14 30 34 21 17 18 25 47 45 26 31 31 20 38 43 46 39 36 38 40 41 38 42 44
14 11 15 14 14 9 8 13 17 20 23 24 27 24 23 21 21 21 17 14 16 20 29 25 26 46 45 46 37 32 25 28 11 22 28 35 44 40 36 30 36 42 39 34
12 16 13 10 12 14 14 16 12 14 10 15 23 27 25 23 20 16 13 10 11 10 23 21 30 47 48 49 54 38 28 18 17 9 11 18 21 23 27 28 24 23 20 21
12 5 7 14 15 10 7 12 11 10 13 19 23 28 18 22 19 15 13 13 10 10 18 14 29 39 43 45 48 54 40 16 14 11 7 10 4 7 7 11 17 18 20 19
13 13 10 8 10 13 10 15 18 16 24 19 23 19 20 17 19 9 8 6 11 5 14 12 32 30 34 39 42 43 44 44 32 26 19 10 8 6 9 13 13 15 16 14
7 6 13 9 7 10 14 15 19 19 18 23 22 16 9 13 8 6 6 7 5 6 10 18 25 26 27 28 32 36 38 37 41 39 31 32 34 35 38 43 32 25 29 26
6 7 8 10 10 9 12 13 13 14 14 19 18 10 7 10 6 7 6 5 6 8 12 16 21 22 24 23 22 26 27 30 32 32 32 31 29 31 32 33 30 22 23 24
10 9 9 10 10 11 14 14 14 14 15 8 10 9 5 7 5 7 10 6 8 14 14 17 22 21 20 19 23 21 18 19 20 24 24 26 26 26 25 25 24 23 22 22
7 9 10 11 11 12 15 15 15 14 12 12 7 7 7 4 5 7 10 14 16 20 14 16 22 22 25 18 16 19 18 15 15 15 16 20 24 22 14 13 14 15 15 14

GFSNW_700_spd_033.txt.gz
Wind_Speed
35 36 36 36 38 38 33 35 14 5 17 13 15 12 19 20 20 18 20 13 15 18 20 18 20 24 26 28 26 20 11 19 42 50 37 49 38 46 45 33 31 33 26 25
35 36 36 35 36 39 41 36 13 10 23 7 14 15 17 17 23 16 22 20 14 20 20 24 15 26 27 33 27 24 16 7 23 39 40 34 56 46 48 39 32 34 15 15
35 36 36 34 34 36 36 36 29 32 2 7 9 13 19 21 22 17 14 16 17 22 21 17 24 25 22 38 25 20 19 15 22 17 36 33 48 46 44 37 39 39 32 26
34 35 35 34 32 35 36 33 27 26 25 11 6 10 19 18 21 20 15 20 16 16 20 22 13 20 27 39 23 21 24 13 15 31 28 25 28 51 44 48 37 40 36 23
34 34 32 35 34 31 34 34 32 30 19 12 9 10 14 17 20 18 20 18 22 12 21 13 24 18 23 26 25 23 24 13 15 19 31 30 30 49 46 43 43 35 35 33
31 31 30 32 33 34 34 33 30 29 26 15 13 11 18 22 18 15 17 20 21 22 20 18 20 22 20 23 26 31 22 24 22 5 17 13 10 27 49 45 40 41 35 35
29 29 29 29 30 32 33 32 32 30 28 21 18 18 15 21 19 20 17 17 24 22 14 17 20 17 15 13 15 28 19 19 16 7 3 2 16 26 11 41 35 34 42 15
27 28 27 27 28 29 30 31 30 28 31 25 12 14 17 18 18 14 12 18 22 10 16 18 20 14 9 10 12 21 4 8 11 7 3 1 20 8 7 18 19 8 26 27
27 27 26 26 26 28 30 30 29 27 28 27 26 16 14 17 17 23 13 12 14 18 16 14 6 5 9 7 5 12 6 6 9 8 5 2 12 4 11 11 17 11 11 36
26 25 24 26 28 30 31 29 25 22 26 24 26 24 19 15 15 18 17 18 17 20 7 4 5 5 6 6 11 20 9 7 8 8 7 7 10 16 9 9 9 17 25 32
24 25 26 27 28 28 27 25 17 17 22 18 22 24 19 17 9 14 15 17 12 15 18 11 12 11 12 11 12 19 8 8 6 3 5 5 15 15 23 14 13 20 26 31
25 27 28 27 23 22 21 21 17 15 18 20 15 12 11 12 1 7 9 14 11 10 12 16 10 15 11 20 11 9 9 10 11 6 8 10 7 22 18 6 3 14 20 24
27 27 25 22 18 19 19 22 21 17 16 14 13 14 13 11 6 3 7 8 9 6 8 10 10 9 13 12 9 13 13 13 9 9 13 4 9 5 4 10 6 2 8 10
24 22 22 17 15 14 17 20 19 18 14 17 14 10 14 13 1 1 7 8 10 11 11 9 8 11 10 14 16 18 15 14 19 17 8 8 7 11 9 9 9 12 9 8
19 18 19 17 14 15 13 17 21 16 21 25 28 26 22 13 8 10 6 5 7 10 13 14 15 16 19 16 17 15 5 12 20 27 20 24 16 16 18 17 14 12 16 14
18 17 15 16 21 19 21 21 24 21 21 33 34 42 42 42 33 23 13 8 14 14 17 16 17 16 18 15 18 26 23 27 31 38 36 35 29 27 24 19 21 14 16 17
16 16 11 13 20 24 25 20 23 27 27 26 18 24 25 28 31 38 37 33 27 19 12 11 10 8 6 11 30 33 27 14 20 30 40 49 42 40 35 31 29 32 30 29
14 14 9 9 12 14 19 26 19 24 27 25 16 18 29 28 20 25 29 34 36 35 24 26 21 12 6 14 33 27 31 17 21 33 40 52 53 53 46 38 36 38 40 42
16 9 4 7 7 10 14 14 16 18 22 18 24 25 15 18 22 13 7 17 19 25 26 28 26 39 27 34 37 28 18 18 25 23 26 46 52 51 51 47 43 43 43 44
12 8 5 10 8 8 4 7 9 8 12 21 29 26 26 15 13 11 8 9 11 13 25 18 32 26 38 41 37 31 20 24 17 21 12 8 30 37 36 40 43 45 49 48
8 12 15 8 9 12 10 14 10 12 9 21 20 28 18 13 12 10 8 6 6 9 20 15 25 38 37 41 42 46 26 16 22 17 8 4 16 29 35 35 36 36 42 46
16 9 3 12 13 12 9 12 13 11 13 22 29 28 20 12 14 7 7 8 8 6 15 11 16 34 34 36 38 42 44 33 18 11 11 7 3 10 17 23 31 34 36 35
11 17 13 8 9 13 13 16 19 18 23 24 25 25 16 12 14 7 6 4 5 6 10 11 29 31 31 30 31 32 37 37 37 35 20 7 5 7 9 8 9 13 16 16
12 10 13 9 9 11 15 16 18 20 12 22 19 15 13 11 7 6 6 5 3 6 7 13 26 31 28 25 24 25 27 30 33 32 32 32 28 21 20 15 18 15 14 14
11 6 8 10 9 10 13 15 14 14 13 20 13 8 4 9 5 6 5 5 5 8 13 16 22 30 25 20 21 23 22 23 23 26 29 26 25 27 23 19 20 25 27 23
8 7 7 10 9 11 15 16 17 11 16 9 11 11 5 9 5 6 10 5 5 12 18 20 21 23 23 27 26 21 19 17 19 20 21 22 24 24 25 24 20 20 20 20
6 6 11 13 13 11 14 16 16 11 12 14 5 8 6 4 5 7 10 13 14 11 17 17 19 21 23 27 29 17 20 19 13 15 17 17 18 21 17 16 15 16 18 18

GFSNW_700_spd_036.txt.gz
Wind_Speed
33 34 34 33 35 32 28 29 22 19 23 16 13 11 11 12 17 16 19 17 9 12 13 14 12 15 23 33 36 27 12 12 15 37 42 35 45 33 41 26 21 31 17 25
34 34 33 32 31 34 36 33 23 22 20 3 13 16 14 11 17 18 12 10 8 16 18 13 15 17 16 13 27 20 17 5 8 28 30 30 25 48 40 47 32 36 21 27
33 35 34 31 30 31 31 33 28 29 9 16 15 16 14 10 9 16 16 16 12 15 20 18 13 15 15 19 17 28 15 15 17 12 16 22 26 33 45 43 36 34 44 43
33 34 33 30 28 30 29 30 27 25 27 16 10 11 11 12 15 13 11 16 14 16 20 20 15 13 15 21 19 20 13 11 8 22 28 23 20 21 40 41 43 39 39 41
32 31 29 31 29 27 28 28 28 27 22 19 14 10 10 12 15 17 17 16 17 17 20 20 23 17 19 16 22 18 18 11 21 16 16 20 14 24 19 43 45 40 37 35
29 28 28 29 30 30 27 27 27 27 28 23 16 12 14 19 20 15 12 17 17 18 19 19 21 19 19 18 18 13 16 19 18 6 10 14 6 6 17 37 40 44 34 31
28 28 27 27 28 29 29 28 29 27 30 27 23 17 12 14 16 23 17 16 17 17 13 17 20 21 20 17 14 12 16 14 9 8 2 8 11 9 12 18 20 25 24 37
26 25 25 26 27 30 30 28 26 24 28 28 24 24 19 13 11 12 13 14 16 23 21 19 14 7 5 4 1 5 10 13 7 5 8 12 11 6 8 10 14 9 15 30
23 25 26 26 27 28 27 24 21 20 23 26 22 22 17 16 12 10 11 9 12 23 12 9 4 4 2 4 4 4 4 9 14 7 3 5 12 9 8 25 18 21 21 32
24 26 27 26 25 24 23 21 16 16 21 20 16 18 19 17 17 9 11 16 13 18 16 11 4 3 5 6 4 6 4 8 1 3 7 11 16 5 9 13 8 23 31 35
27 28 26 23 20 20 20 20 16 14 18 17 17 13 14 17 14 6 10 7 14 15 17 14 11 7 12 13 20 14 7 6 7 5 7 5 14 21 32 15 8 17 26 29
24 22 22 18 14 19 19 19 17 13 11 10 10 12 21 9 6 7 9 10 11 13 13 14 10 12 18 16 8 21 13 16 10 8 11 11 13 25 18 11 19 9 15 19
20 19 18 17 15 14 20 21 20 21 18 14 13 14 13 7 5 4 10 8 8 6 12 12 10 7 16 17 13 22 13 12 12 9 5 3 16 19 21 9 13 10 3 12
17 16 19 17 17 17 18 22 17 20 36 35 29 21 15 10 6 8 12 8 8 12 11 12 13 13 14 15 15 17 17 10 9 8 9 3 9 11 12 10 0 3 1 3
17 15 17 15 17 18 18 23 32 32 30 34 35 36 38 33 26 21 17 12 13 12 11 13 13 17 15 19 17 14 24 20 19 21 15 14 14 13 13 13 7 10 10 8
15 12 13 22 17 15 17 20 20 19 22 32 34 32 31 34 33 31 29 26 28 27 22 22 21 15 16 18 19 25 24 16 16 27 26 27 24 23 19 20 19 12 10 14
12 9 10 12 17 16 19 20 18 21 21 21 18 26 31 32 34 34 35 34 35 40 42 29 20 26 11 33 36 39 30 18 12 14 25 33 33 31 25 29 23 31 22 15
9 7 6 5 8 11 13 13 18 14 20 19 11 14 17 16 20 24 24 26 33 38 25 32 42 28 23 23 36 25 28 20 22 12 18 34 40 41 36 35 32 33 40 39
12 3 5 4 2 4 3 5 7 12 21 22 14 15 7 10 8 8 8 17 18 26 32 36 23 35 28 33 36 36 30 29 32 26 25 22 35 48 48 46 40 40 38 39
7 6 3 4 8 7 7 8 12 10 11 19 32 25 17 9 8 8 4 4 10 14 26 15 35 34 31 34 33 38 36 29 29 30 29 23 17 15 34 39 36 38 41 42
8 6 12 9 10 14 10 13 18 12 11 20 29 29 21 11 9 5 6 6 6 6 18 13 20 33 32 33 31 31 36 37 25 23 25 23 22 14 4 16 26 30 33 34
12 10 8 14 13 9 8 13 13 11 12 27 27 28 15 12 12 7 5 5 6 5 12 7 16 30 29 25 25 25 28 33 34 30 21 20 17 11 7 13 21 26 28 29
13 14 13 8 10 12 10 13 15 16 21 16 23 24 9 12 10 6 5 3 4 7 6 4 17 26 28 23 20 19 21 25 28 28 28 25 18 13 10 11 16 24 23 27
11 10 10 7 6 9 14 17 22 21 12 14 14 12 10 10 6 4 3 5 1 4 7 11 17 20 23 27 22 17 19 20 22 23 26 23 23 20 11 5 10 9 9 12
9 5 4 11 11 15 19 17 11 5 10 10 9 9 3 6 3 4 3 2 3 3 11 16 16 18 19 22 28 17 17 18 20 21 22 22 23 22 20 17 13 10 6 5
6 2 10 16 18 21 19 19 12 11 13 6 8 5 3 7 4 4 7 3 4 12 13 16 20 21 19 22 25 14 16 15 18 19 20 22 23 21 23 24 21 16 16 15
4 7 11 15 16 22 23 23 17 14 14 14 6 7 6 2 3 4 5 4 9 12 17 14 15 16 18 21 22 12 12 14 15 17 20 19 22 25 22 18 17 16 20 20

GFSNW_700_spd_042.txt.gz
Wind_Speed
29 30 29 29 27 24 22 20 17 11 17 11 7 10 14 15 14 14 15 15 13 11 9 9 10 11 12 13 17 19 21 15 19 34 33 31 42 39 41 29 30 34 4 24
28 27 27 28 29 28 24 20 15 18 15 7 17 12 15 18 16 14 10 9 10 9 12 8 8 9 15 18 18 13 15 12 11 14 37 34 23 47 34 44 30 40 24 8
27 26 26 26 27 26 25 24 18 20 10 20 15 18 13 10 12 12 14 13 12 12 14 13 10 14 14 21 21 19 18 21 27 17 13 8 24 26 45 41 30 30 42 33
26 26 25 26 25 26 26 25 23 21 19 15 13 12 11 11 16 19 20 17 16 18 21 21 23 22 21 21 19 21 17 27 29 33 36 30 23 21 32 42 42 29 24 35
26 25 25 26 26 26 25 23 22 22 16 13 11 12 17 14 13 20 25 27 24 21 29 21 24 20 22 24 20 25 24 24 20 32 29 33 24 12 17 28 44 34 24 34
27 26 25 26 27 25 24 26 26 24 18 16 13 17 19 19 17 20 12 20 17 17 18 18 22 23 27 28 24 25 27 23 11 15 14 17 17 19 12 20 32 38 44 37
28 28 26 26 25 24 22 24 24 23 18 14 15 20 18 16 15 19 20 15 16 11 15 21 27 30 33 30 28 31 31 21 14 14 5 11 15 16 22 22 24 32 35 32
28 26 25 24 23 22 23 22 19 18 16 12 16 18 14 16 18 16 12 6 11 17 21 32 15 10 14 28 30 30 30 26 12 6 5 20 21 21 19 22 12 21 24 25
26 24 23 22 21 22 22 20 15 13 14 16 17 14 19 22 21 15 6 11 13 13 21 22 7 6 7 8 10 28 31 28 24 7 7 5 10 16 21 29 14 11 20 23
23 22 22 22 20 19 18 20 13 16 12 14 14 19 21 13 16 15 17 6 14 14 20 14 6 4 6 9 8 16 19 20 32 28 7 5 6 20 27 8 10 15 17 23
21 19 20 20 19 17 21 24 15 22 17 16 13 17 18 15 18 15 15 10 18 21 19 10 10 9 16 20 10 8 3 2 2 5 2 5 8 28 16 17 17 15 20 21
18 17 19 20 22 21 22 25 23 22 28 24 22 16 12 15 13 19 11 13 18 17 20 20 14 17 19 23 8 15 11 7 1 5 9 15 25 30 28 23 18 18 19 24
15 12 16 16 20 25 28 21 22 26 17 24 25 26 24 15 10 8 8 10 11 13 14 16 15 10 23 13 31 26 16 18 9 8 16 17 22 28 26 23 20 21 19 22
12 15 13 11 14 20 22 24 23 17 27 30 30 32 35 33 27 23 22 20 18 17 19 23 22 15 22 22 23 29 21 20 12 13 7 14 18 25 24 23 22 20 18 21
7 11 15 12 7 14 18 16 17 16 18 21 21 26 30 27 27 27 26 26 24 23 22 27 22 21 21 32 33 32 21 18 14 13 7 4 10 19 21 22 21 19 16 16
8 7 10 11 9 10 11 10 14 24 10 9 6 8 12 16 24 21 26 24 22 26 23 17 18 34 18 20 36 30 22 16 13 13 10 3 11 15 24 24 19 17 15 12
9 6 8 6 8 10 10 14 13 15 20 15 8 2 6 5 5 6 12 15 20 27 23 20 17 12 23 32 30 31 26 15 13 9 11 4 8 13 17 24 25 20 15 17
10 5 7 6 10 14 12 11 12 8 17 18 19 21 10 13 12 8 7 6 13 16 26 23 21 24 20 21 25 27 29 31 20 8 11 13 9 6 19 24 26 24 30 20
9 9 8 7 10 8 7 9 10 8 12 16 17 28 21 20 16 10 7 3 4 14 15 30 23 24 17 19 21 26 30 32 32 27 10 9 14 16 8 20 26 25 26 34
11 7 8 6 7 5 10 10 13 10 11 14 23 27 26 16 18 9 8 3 2 3 13 9 24 23 19 20 19 18 25 28 30 32 29 21 14 16 19 11 12 27 30 28
9 5 7 8 6 6 6 10 8 8 8 14 21 24 21 18 18 12 7 7 6 3 7 5 11 21 20 19 19 18 21 24 26 27 27 24 22 10 8 10 7 4 7 20
9 6 7 8 8 7 6 9 9 8 8 18 21 24 15 16 17 9 8 5 6 4 9 3 9 18 15 18 17 19 19 22 23 24 25 24 25 23 14 8 7 5 6 10
8 8 9 7 8 10 7 12 14 17 18 18 20 18 13 12 12 8 5 4 4 8 3 4 15 15 15 17 15 17 20 19 21 22 25 26 20 21 21 20 17 14 7 6
6 5 8 7 5 11 16 16 17 16 18 17 15 10 12 12 9 6 4 5 5 3 3 7 16 17 16 18 17 13 16 18 18 20 21 23 23 22 20 17 17 18 16 14
5 3 4 10 13 15 13 18 17 16 19 13 7 10 12 10 5 5 5 6 4 4 10 15 17 20 16 17 16 15 16 18 19 19 20 23 23 23 22 20 18 15 15 15
4 4 9 13 14 12 11 13 14 13 15 12 9 7 7 5 7 5 4 9 4 13 17 19 20 15 13 16 16 15 16 17 19 18 17 19 21 24 23 24 24 23 18 14
5 10 11 14 14 9 11 11 12 13 15 19 11 8 11 9 7 9 8 14 17 17 21 19 15 15 16 17 14 15 16 15 16 16 17 17 19 21 20 19 21 23 22 18

GFSNW_700_spd_045.txt.gz
Wind_Speed
28 27 25 23 24 24 21 18 11 12 13 8 5 8 10 12 13 16 16 16 16 17 14 12 9 11 9 7 9 11 12 11 16 23 29 28 18 27 41 32 32 40 29 24
27 26 25 24 26 26 25 21 12 15 8 8 12 9 10 12 15 15 13 13 12 11 14 9 12 12 13 10 11 7 9 7 8 18 18 27 33 31 37 41 40 38 25 26
27 27 26 25 25 26 24 22 17 17 9 14 14 13 8 4 9 15 16 17 16 15 18 17 11 14 10 10 10 15 14 18 13 20 22 10 17 18 26 31 45 39 39 34
28 28 26 25 25 24 22 20 18 17 10 11 9 9 9 9 9 10 14 20 23 26 16 21 23 23 17 18 16 15 16 21 14 20 28 34 36 36 30 25 34 38 39 33
28 27 26 24 23 21 21 20 18 16 10 11 7 12 15 13 16 15 17 16 18 23 23 25 19 21 16 20 12 18 22 18 16 26 31 32 38 43 38 31 38 33 23 23
28 27 25 23 21 21 24 24 22 17 14 12 14 17 17 16 14 15 17 16 19 16 18 21 20 21 22 22 20 21 26 27 18 31 23 24 33 46 36 26 26 37 42 27
26 25 23 21 20 22 23 23 19 15 12 13 16 13 13 17 13 16 14 7 6 5 9 15 20 25 26 29 32 27 28 27 22 30 25 11 19 23 31 18 21 38 37 42
24 23 21 21 21 22 23 20 18 15 15 15 16 15 18 16 12 14 8 7 12 14 17 18 21 21 18 28 34 37 31 29 22 12 13 22 19 23 35 22 18 33 37 41
22 20 21 23 21 23 23 19 21 19 17 17 15 16 16 17 18 14 17 8 14 14 15 15 8 6 9 3 4 25 32 31 28 17 10 5 19 30 35 28 11 25 40 37
18 18 23 24 24 22 25 24 23 25 19 20 14 17 17 13 17 20 16 11 16 22 21 11 6 5 7 7 12 18 26 25 33 31 17 19 8 24 30 9 13 17 22 30
15 15 20 24 24 25 24 22 21 23 21 25 23 14 8 14 15 17 16 10 24 22 19 9 10 8 12 7 9 12 19 15 22 22 12 13 7 28 18 20 22 23 21 25
14 12 16 21 21 25 25 22 20 22 28 27 28 24 19 11 8 12 13 14 14 15 17 15 12 12 13 24 7 9 1 3 4 3 1 6 23 32 33 28 24 25 25 27
15 14 8 10 18 22 28 20 20 20 15 22 27 30 27 24 25 24 22 19 17 15 20 16 20 11 22 15 23 23 14 11 11 2 6 12 22 31 32 29 28 26 27 28
9 13 11 5 13 16 16 26 20 10 15 21 21 21 24 25 24 23 24 20 22 19 17 19 20 23 37 32 21 33 21 23 17 22 11 7 13 27 30 28 27 26 28 27
9 8 12 10 8 11 10 13 17 21 11 5 8 11 14 17 23 27 25 21 17 14 20 23 23 18 21 31 38 36 25 22 22 19 20 8 6 23 26 25 23 23 24 27
10 7 7 8 10 11 10 11 14 16 16 17 7 5 4 2 8 14 16 19 23 10 9 17 20 25 17 25 30 31 22 15 14 16 14 10 5 14 23 23 22 21 20 24
11 8 7 8 11 13 15 12 12 8 13 13 13 16 18 18 13 4 6 12 19 21 17 15 15 16 21 29 24 29 30 22 11 11 8 6 4 13 20 21 19 21 22 20
10 10 9 9 11 13 11 8 9 5 12 12 12 19 19 21 16 11 6 4 9 17 21 22 19 18 18 20 20 24 27 28 24 11 12 13 11 2 17 23 18 18 17 17
13 7 11 8 8 7 10 8 8 6 7 10 14 22 19 22 20 10 8 2 3 8 10 23 21 24 15 19 20 21 26 28 27 23 14 7 8 11 7 14 24 26 25 23
11 9 9 9 8 8 9 9 9 6 7 7 17 23 25 18 21 14 7 1 1 2 12 8 18 20 19 19 20 19 22 25 25 24 24 23 18 13 12 10 5 14 22 26
12 8 8 11 10 7 7 7 8 7 6 10 19 22 24 15 17 12 7 5 3 1 6 5 13 18 19 20 18 19 19 23 26 27 24 23 23 21 13 7 5 3 7 16
12 11 11 7 9 8 6 10 8 7 6 19 20 23 18 14 12 8 7 4 4 2 5 2 7 14 16 19 16 17 20 21 23 26 26 23 20 19 19 17 13 10 7 6
10 8 9 6 6 9 8 11 12 14 18 21 23 16 12 10 10 5 4 3 3 4 2 2 11 12 12 16 15 15 17 19 19 22 25 25 24 20 17 16 17 16 14 10
8 5 6 6 5 9 15 15 18 16 17 18 13 12 10 13 7 4 3 3 3 2 2 8 14 13 13 13 12 12 14 16 15 16 18 20 22 20 20 18 15 15 15 15
6 3 3 8 11 11 11 14 16 15 15 15 14 13 11 9 3 3 3 4 2 1 8 13 14 10 9 11 10 10 11 13 13 12 13 17 20 20 16 15 15 14 15 17
4 3 7 11 14 12 12 13 12 9 17 20 16 10 6 5 6 3 3 6 3 12 13 15 12 6 8 10 9 9 10 10 11 10 10 12 15 17 16 15 15 14 13 12
3 7 9 10 17 13 12 16 18 19 21 15 14 7 5 7 5 6 7 9 14 14 15 13 5 6 8 9 8 8 10 9 9 10 10 12 11 12 13 15 15 15 15 13

GFSNW_700_spd_048.txt.gz
Wind_Speed
25 24 24 23 22 20 16 11 2 11 8 2 2 4 11 13 6 7 9 10 13 15 14 14 14 14 11 9 8 4 7 7 13 16 18 19 15 17 30 36 32 39 36 16
27 27 26 23 22 20 16 12 6 8 2 2 3 5 4 7 5 6 6 8 9 11 13 12 13 14 12 11 9 6 7 7 9 12 16 19 20 29 24 26 34 35 28 34
28 27 25 22 21 19 17 14 5 11 4 6 5 3 4 4 6 5 6 11 13 14 16 16 11 13 12 12 13 17 9 14 16 18 15 6 10 16 20 26 34 36 41 31
28 27 25 22 20 20 18 16 10 8 4 8 9 9 8 7 5 3 7 6 10 14 16 18 22 19 14 15 16 16 13 16 16 22 21 21 23 25 26 27 28 34 33 36
27 27 24 20 21 22 21 16 9 6 7 8 8 5 6 7 10 12 9 10 12 14 20 17 12 20 21 20 18 21 21 22 15 23 22 24 30 32 36 36 36 36 34 39
25 24 20 19 23 22 21 18 15 11 12 14 10 8 9 11 12 11 12 13 14 16 17 19 23 25 26 23 18 22 24 20 18 25 23 26 33 33 38 43 41 40 41 39
21 20 19 18 23 21 20 20 18 18 15 13 11 8 11 9 11 12 11 8 9 11 12 16 17 20 22 24 26 27 23 23 21 25 22 19 37 33 36 42 46 44 40 37
18 18 20 18 22 21 21 22 21 24 20 12 13 11 7 13 11 9 12 10 11 15 14 14 15 14 19 28 32 34 34 26 17 21 21 26 34 29 25 42 46 42 41 40
14 16 19 22 21 21 20 19 23 23 23 18 10 9 9 12 14 11 11 12 9 11 10 10 6 5 8 6 6 18 33 31 28 18 14 15 23 22 9 24 40 34 34 32
11 15 19 23 23 21 18 20 19 25 25 23 19 15 12 12 14 14 15 12 17 17 13 9 6 6 10 5 8 9 29 31 31 30 25 26 38 45 31 14 27 35 46 47
8 9 14 19 22 23 20 17 19 22 25 27 23 22 19 17 17 15 13 9 16 14 12 6 8 8 9 6 5 13 17 14 18 23 20 21 35 27 8 7 19 32 36 38
10 8 8 11 17 22 23 18 16 17 21 22 24 21 20 19 19 17 19 15 13 13 13 10 8 10 12 15 5 6 10 22 11 19 14 26 11 6 9 19 27 36 36 33
7 10 4 6 13 13 16 22 18 15 12 16 22 21 20 21 19 19 17 18 15 14 11 9 11 8 22 13 18 21 4 12 7 8 12 11 7 9 3 19 32 39 39 40
8 6 8 4 9 14 11 14 16 17 11 8 9 12 15 16 17 19 18 13 13 17 14 14 12 9 16 26 22 27 21 20 10 11 18 4 7 9 5 18 32 35 37 36
10 7 5 5 8 12 13 12 12 13 13 11 7 15 8 8 7 11 17 21 13 10 6 16 18 16 10 12 28 33 24 20 20 17 13 13 13 8 6 15 28 30 31 31
10 9 6 8 9 14 15 11 10 10 12 15 9 17 20 15 14 7 9 17 19 14 9 10 13 15 22 16 19 28 27 16 18 16 10 11 14 13 8 16 23 22 24 25
9 9 8 8 8 12 11 9 11 8 12 12 10 11 20 23 18 14 8 8 12 17 19 11 10 14 13 22 25 28 28 26 17 14 8 10 11 8 8 13 13 15 17 21
11 7 10 8 7 8 9 8 9 7 8 8 8 13 14 22 21 11 10 6 8 10 15 15 18 9 13 15 17 21 24 24 25 20 14 14 10 12 11 14 10 12 15 16
10 8 8 8 8 7 9 8 7 5 5 5 10 17 17 22 18 13 8 3 6 7 11 13 16 20 13 17 16 19 22 26 25 22 21 14 9 9 7 8 19 16 16 18
11 8 9 9 12 10 8 5 7 3 5 6 14 16 21 20 17 15 7 2 3 4 8 8 14 16 13 16 15 17 19 24 24 22 23 21 23 16 14 8 4 9 23 23
10 10 10 8 8 6 5 7 7 6 6 7 18 18 19 16 11 12 6 4 2 2 4 5 9 13 12 14 14 15 16 20 24 26 26 24 22 21 20 15 10 5 12 18
11 9 8 5 6 6 5 8 7 6 5 13 18 18 14 11 11 5 5 3 3 2 4 2 6 11 10 13 13 14 15 16 17 20 23 23 22 22 18 16 16 15 10 6
7 5 7 5 5 5 4 8 11 11 12 12 16 14 15 10 8 5 3 2 3 5 2 4 5 9 10 11 11 12 13 14 15 16 18 20 21 20 20 19 17 16 14 12
5 3 3 4 3 5 10 10 12 12 10 12 16 16 11 10 6 4 3 3 2 3 3 6 6 11 9 8 9 9 10 12 11 14 16 18 19 18 18 18 18 16 17 15
4 2 2 3 8 11 12 13 14 12 17 23 17 12 9 6 4 3 3 1 2 3 6 8 10 14 6 6 7 8 9 10 9 9 12 14 17 16 15 15 15 16 14 13
4 3 5 8 10 12 13 15 15 18 23 24 16 12 5 6 4 2 2 3 3 6 9 9 10 8 6 7 7 6 8 8 8 8 8 9 10 11 12 12 13 14 14 14
4 4 7 10 12 13 14 17 17 23 24 20 28 5 3 4 2 3 4 4 8 9 8 8 7 5 6 8 8 6 6 7 6 7 7 8 8 9 10 12 13 13 14 15